Newport Airport, OR

10:27 PM PDT on July 23, 2017 (GMT -0700)
Newport Municipal

Weather History for KONP - November, 2010

Change the Weather History Date:

Wednesday, November 3, 2010

  Actual Average Record
Temperature  
Mean Temperature 56 °F -  
Max Temperature 62 °F 54 °F 62 °F (2007)
Min Temperature 50 °F 43 °F 30 °F (2003)
Degree Days  
Heating Degree Days 9    
Growing Degree Days 6 (Base 50)    
Moisture  
Dew Point 51 °F    
Average Humidity 83    
Maximum Humidity 100    
Minimum Humidity 59    
Precipitation  
Precipitation 0.00 in - - ()
Sea Level Pressure  
Sea Level Pressure 30.14 in    
Wind  
Wind Speed 13 mph (South)    
Max Wind Speed 25 mph    
Max Gust Speed 36 mph    
Visibility 6 miles    
Events Fog , Rain    
Averages and records for this station are not official NWS values.
T = Trace of Precipitation, MM = Missing Value Source: NWS Daily Summary

Daily Weather History Graph

Daily Weather History Graph

Search for Another Location

Airport or City:

Trip Planner

Search our weather history database for the weather conditions in past years. The results will help you decide how hot, cold, wet, or windy it might be!

Date:

Astronomy

Nov. 03, 2010 Rise Set
Actual Time 7:56 AM PDT 6:02 PM PDT
Civil Twilight 7:26 AM PDT 6:32 PM PDT
Nautical Twilight 6:51 AM PDT 7:07 PM PDT
Astronomical Twilight 6:17 AM PDT 7:41 PM PDT
Moon 4:57 AM PDT (11/3) 4:19 PM PDT (11/3)
Length of Visible Light 11h 06m
Length of Day
10h 05m
Waning Crescent, 8% of the Moon is Illuminated
Nov 3
Waning Crescent
Nov 5
New
Nov 13
First Quarter
Nov 21
Full
Nov 28
Last Quarter

Hourly Weather History & Observations

Time (PDT) Temp. Dew Point Humidity Pressure Visibility Wind Dir Wind Speed Gust Speed Precip Events Conditions
12:11 AM 62.6 °F 50.0 °F 63% 30.15 in 10.0 mi East 24.2 mph 35.7 mph N/A   Clear
12:51 AM 62.6 °F 50.0 °F 63% 30.14 in 10.0 mi East 23.0 mph 32.2 mph N/A   Clear
1:11 AM 62.6 °F 50.0 °F 63% 30.14 in 10.0 mi East 23.0 mph 33.4 mph N/A   Clear
1:31 AM 62.6 °F 50.0 °F 63% 30.13 in 10.0 mi East 21.9 mph 33.4 mph N/A   Clear
1:51 AM 62.6 °F 50.0 °F 63% 30.13 in 10.0 mi East 24.2 mph 31.1 mph N/A   Clear
2:11 AM 62.6 °F 50.0 °F 63% 30.12 in 10.0 mi East 25.3 mph 29.9 mph N/A   Clear
2:31 AM 62.6 °F 48.2 °F 59% 30.12 in 10.0 mi East 24.2 mph 32.2 mph N/A   Clear
2:51 AM 62.6 °F 48.2 °F 59% 30.11 in 10.0 mi East 23.0 mph 33.4 mph N/A   Clear
3:11 AM 62.6 °F 48.2 °F 59% 30.11 in 10.0 mi East 21.9 mph 31.1 mph N/A   Clear
3:31 AM 62.6 °F 48.2 °F 59% 30.11 in 10.0 mi East 23.0 mph 31.1 mph N/A   Clear
3:51 AM 62.6 °F 48.2 °F 59% 30.10 in 10.0 mi East 21.9 mph 29.9 mph N/A   Clear
4:11 AM 62.6 °F 48.2 °F 59% 30.11 in 10.0 mi East 16.1 mph 27.6 mph N/A   Clear
4:31 AM 62.6 °F 48.2 °F 59% 30.13 in 10.0 mi SE 4.6 mph - N/A   Clear
4:51 AM 60.8 °F 48.2 °F 63% 30.13 in 10.0 mi ESE 5.8 mph - N/A   Clear
5:11 AM 60.8 °F 48.2 °F 63% 30.13 in 10.0 mi ESE 4.6 mph - N/A   Clear
5:31 AM 60.8 °F 48.2 °F 63% 30.13 in 10.0 mi ESE 4.6 mph - N/A   Clear
5:51 AM 59.0 °F 48.2 °F 67% 30.14 in 10.0 mi Calm Calm - N/A   Clear
6:11 AM 55.4 °F 48.2 °F 77% 30.14 in 10.0 mi South 3.5 mph - N/A   Clear
6:31 AM 53.6 °F 48.2 °F 82% 30.14 in 10.0 mi ESE 5.8 mph - N/A   Clear
6:51 AM 55.4 °F 48.2 °F 77% 30.14 in 10.0 mi Calm Calm - N/A   Clear
7:11 AM 53.6 °F 50.0 °F 88% 30.14 in 10.0 mi SSE 4.6 mph - N/A   Clear
7:31 AM 53.6 °F 48.2 °F 82% 30.14 in 10.0 mi SE 3.5 mph - N/A   Clear
7:51 AM 51.8 °F 48.2 °F 88% 30.14 in 10.0 mi Calm Calm - N/A   Clear
8:12 AM 50.0 °F 48.2 °F 94% 30.14 in 10.0 mi Calm Calm - N/A   Clear
8:31 AM 50.0 °F 46.4 °F 87% 30.14 in 10.0 mi Calm Calm - N/A   Clear
8:51 AM 51.8 °F 50.0 °F 94% 30.15 in 10.0 mi Calm Calm - N/A   Clear
9:11 AM 55.4 °F 51.8 °F 88% 30.15 in 10.0 mi Calm Calm - N/A   Clear
9:31 AM 57.2 °F 53.6 °F 88% 30.16 in 10.0 mi SW 3.5 mph - N/A   Clear
9:51 AM 57.2 °F 51.8 °F 82% 30.16 in 1.2 mi SW 3.5 mph - N/A   Haze
10:11 AM 57.2 °F 53.6 °F 88% 30.15 in 2.0 mi SW 4.6 mph - N/A   Haze
10:31 AM 57.2 °F 53.6 °F 88% 30.15 in 1.2 mi WSW 6.9 mph - N/A   Mist
10:51 AM 55.4 °F 53.6 °F 94% 30.15 in 1.2 mi SW 8.1 mph - N/A   Mostly Cloudy
11:11 AM 57.2 °F 53.6 °F 88% 30.14 in 3.0 mi SW 3.5 mph - N/A   Scattered Clouds
11:31 AM 59.0 °F 53.6 °F 82% 30.14 in 2.0 mi WSW 6.9 mph - N/A   Haze
11:51 AM 55.4 °F 53.6 °F 94% 30.14 in 2.5 mi WSW 6.9 mph - N/A   Clear
12:11 PM 57.2 °F 53.6 °F 88% 30.14 in 4.0 mi SW 9.2 mph - N/A   Clear
12:31 PM 59.0 °F 53.6 °F 82% 30.13 in 3.0 mi SW 9.2 mph - N/A   Haze
12:51 PM 59.0 °F 53.6 °F 82% 30.13 in 5.0 mi SW 10.4 mph - N/A   Haze
1:11 PM 57.2 °F 53.6 °F 88% 30.14 in 4.0 mi SW 10.4 mph - N/A   Scattered Clouds
1:31 PM 57.2 °F 53.6 °F 88% 30.14 in 4.0 mi SW 9.2 mph - N/A   Scattered Clouds
1:52 PM 55.4 °F 53.6 °F 94% 30.13 in 3.0 mi SW 8.1 mph - N/A   Overcast
2:11 PM 55.4 °F 53.6 °F 94% 30.13 in 1.0 mi SW 11.5 mph - N/A   Overcast
2:31 PM 55.4 °F 53.6 °F 94% 30.14 in 1.2 mi SW 9.2 mph - N/A   Overcast
2:51 PM 53.6 °F 53.6 °F 100% 30.14 in 0.5 mi SSW 9.2 mph - N/A Fog Fog
3:11 PM 55.4 °F 53.6 °F 94% 30.14 in 1.0 mi SSW 5.8 mph - N/A   Overcast
3:31 PM 55.4 °F 53.6 °F 94% 30.14 in 3.0 mi WSW 6.9 mph - N/A   Overcast
3:51 PM 53.6 °F 53.6 °F 100% 30.15 in 0.5 mi SW 9.2 mph - N/A Fog Fog
4:11 PM 53.6 °F 51.8 °F 94% 30.15 in 0.2 mi SSW 8.1 mph - N/A Fog Fog
4:33 PM 53.6 °F 51.8 °F 94% 30.14 in 0.2 mi SSW 4.6 mph - N/A Fog Fog
4:51 PM 53.6 °F 53.6 °F 100% 30.14 in 1.0 mi SSW 5.8 mph - N/A   Overcast
5:11 PM 53.6 °F 53.6 °F 100% 30.14 in 10.0 mi SSW 4.6 mph - N/A   Overcast
5:31 PM 53.6 °F 53.6 °F 100% 30.14 in 7.0 mi SSW 4.6 mph - N/A   Mostly Cloudy
5:51 PM 53.6 °F 51.8 °F 94% 30.14 in 7.0 mi Calm Calm - N/A   Clear
6:11 PM 51.8 °F 51.8 °F 100% 30.14 in 0.2 mi WSW 4.6 mph - N/A Fog Fog
6:31 PM 51.8 °F 51.8 °F 100% 30.14 in 0.2 mi SW 5.8 mph - N/A Fog Fog
6:51 PM 51.8 °F 51.8 °F 100% 30.16 in 0.2 mi SW 9.2 mph - N/A Rain Light Rain
7:11 PM 51.8 °F 51.8 °F 100% 30.16 in 0.5 mi SSW 8.1 mph - N/A Fog Fog
7:31 PM 51.8 °F 51.8 °F 100% 30.17 in 0.8 mi SSW 6.9 mph - N/A   Overcast
7:51 PM 51.8 °F 51.8 °F 100% 30.17 in 0.8 mi SSW 4.6 mph - N/A   Overcast
8:11 PM 51.8 °F 50.0 °F 94% 30.16 in 1.0 mi ESE 4.6 mph - N/A   Overcast
8:31 PM 51.8 °F 50.0 °F 94% 30.16 in 3.0 mi Calm Calm - N/A   Overcast
8:51 PM 50.0 °F 50.0 °F 100% 30.14 in 1.5 mi East 6.9 mph - N/A   Overcast
9:11 PM 51.8 °F 50.0 °F 94% 30.15 in 0.8 mi Calm Calm - N/A   Overcast
9:31 PM 51.8 °F 50.0 °F 94% 30.14 in 0.2 mi Calm Calm - N/A Fog Fog
9:51 PM 50.0 °F 50.0 °F 100% 30.15 in 0.5 mi WSW 3.5 mph - N/A Fog Fog
10:11 PM 51.8 °F 50.0 °F 94% 30.16 in 0.2 mi WSW 4.6 mph - N/A Fog Fog
10:31 PM 51.8 °F 50.0 °F 94% 30.16 in 0.2 mi SSW 4.6 mph - N/A Fog Fog
10:51 PM 50.0 °F 50.0 °F 100% 30.16 in 0.2 mi SSW 3.5 mph - N/A Fog Fog
11:11 PM 50.0 °F 50.0 °F 100% 30.16 in 0.2 mi Calm Calm - N/A Fog Fog
11:31 PM 50.0 °F 50.0 °F 100% 30.16 in 0.2 mi Calm Calm - N/A Fog Fog
11:51 PM 50.0 °F 48.2 °F 94% 30.16 in 0.2 mi Calm Calm - N/A Fog Fog